STARLINK-37993, 69976

Orbit data source: Space-Track

STARLINK-37993, 69976 is a payload satellite owned by SpaceX/Seattle (US) in SSO that was launched on Sat, 11 Jul 2026 UTC via an FALCON 9 launch vehicle from the Air Force Western Test Range (AFWTR). Payload-class satellites include a variety of spacecraft equipped with specific instruments for various scientific and technological missions. These include communications satellites like Starlink; space stations such as the ISS; scientific satellites like the Hubble; Earth observation satellites from companies like Planet Labs, Umbra, and HawkEye 360; GPS; miniature CubeSats for education and research; and military/defense satellites.

Loading next visibility...
Identifier
69976, 2026-159B
Orbit
SSO
Country
Flag of USUS
Related business
Manufacturer
SpaceX/Seattle
Mission
Operational spacecraft
Bus & Motor
STARLINK V2MO, Unknown motor
Mass
575 kg wet, ~530 kg dry
Launch date (UTC)
2026-07-11 (2 months ago)
Launch vehicle
FALCON 9
Launch site
Air Force Western Test Range (AFWTR)
Object type
Payload
Rocket body
Debris
Shape & HBR
BOX + PAN, 17.7 m
Radar Cross Section
Large (>1 m²)

Expand to show TLE details & history
Last TLE update: 21 hours ago

TLE from 21 hours ago
0 STARLINK-37993
1 69976U 26159B   26264.20531735  .00024200  00000-0  44491-3 0  9999
2 69976  97.2882 105.9887 0002214 112.6201 247.5285 15.49209604 12551
Epoch: 2026-09-21T04:55Z
TLE epoch observation values (Epoch: 2026-09-21T04:55:39.419Z)
Latitude
0.00004°
Longitude
31.98596°
Altitude
422.746 km
Speed
7.657 km/s
True Right ascension
07h 03m 57s
True Declination
0° 00' 00"
Sunlit
Object was in daylight at epoch
Visualization orbit readout
Latitude
Unknown
Longitude
Unknown
Altitude
Unknown
Speed
Unknown
Apparent Right ascension
Unknown
Apparent Declination
Unknown
Sunlit
N/A
Visualization observer readout
Local Sidereal Time
19:26:56
Azimuth
Unknown
Elevation
Unknown
Doppler factor
Unknown
Orbital elements
Apogee altitude
417.463 km
Perigee altitude
414.455 km
Semi-major axis
6,794.096 km
Eccentricity
0.00022
Inclination
97.2882°
RAAN
105.9887°
Arg. of periapsis
112.6201°
True anomaly
247.50506°
Mean anomaly
247.5285°
Eccentric anomaly
247.51678°
Mean motion
3.87566 °/min
Orbital period
92.89 mins
BSTAR
0.00044491
Loading maneuver chart data...
Computing Atmospheric mass density...
Loading historical data...
Loading historical data...
Loading historical data...
Loading historical data...
Loading historical data...
Loading historical data...
Loading historical data...

Documentation

Showing up to 5 results
|